Tracking 28790 objects as of 19-Apr-2024
HD Live streaming from Space Station
objects crossing your sky now

HELIOS 1B

Track HELIOS 1B now!
10-day predictions
HELIOS 1B is classified as:


NORAD ID: 25977
Int'l Code: 1999-064A
Perigee: 621.7 km
Apogee: 624.9 km
Inclination: 98.3 °
Period: 97.0 minutes
Semi major axis: 6994 km
RCS: 8.0113 m2 (large)
Launch date: December 3, 1999
Source: France (FR)
Launch site: FRENCH GUIANA (FRGUI)

Helios 1B was a French military photo-reconnoissance spacecraft launched by an Ariane rocket at 16:22 UT.
Your satellite tracking list
Your tracking list is empty




NASA's NSSDC Master Catalog

Two Line Element Set (TLE):
1 25977U 99064A   24110.18644717  .00002446  00000-0  29936-3 0  9992
2 25977  98.2538 339.8464 0002261 114.3044 245.8405 14.84181672314167
Source of the keplerian elements: AFSPC